Time,TemperatureF,DewpointF,PressureIn,WindDirection,WindDirectionDegrees,WindSpeedMPH,WindSpeedGustMPH,Humidity,HourlyPrecipIn,Conditions,Clouds,dailyrainin,SoftwareType,DateUTC
2013-01-07 00:02:00,8.0,7.0,-100.00,South,170,7.0,7.0,93,0.00,,,0.00,,2013-01-07 00:02:00,
2013-01-07 00:12:00,8.0,7.0,-100.00,SSE,165,9.0,11.0,94,0.00,,,0.00,,2013-01-07 00:12:00,
2013-01-07 00:23:00,9.0,9.0,-100.00,SSE,160,6.0,11.0,94,0.00,,,0.00,,2013-01-07 00:23:00,
2013-01-07 00:32:00,9.0,7.0,-100.00,SSE,150,7.0,10.0,94,0.00,,,0.00,,2013-01-07 00:32:00,
2013-01-07 00:42:00,9.0,7.0,-100.00,SE,145,7.0,10.0,94,0.00,,,0.00,,2013-01-07 00:42:00,
2013-01-07 00:52:00,9.0,9.0,-100.00,SE,145,7.0,9.0,94,0.00,,,0.00,,2013-01-07 00:52:00,
2013-01-07 01:02:00,9.0,9.0,-100.00,SSE,150,7.0,10.0,94,0.00,,,0.00,,2013-01-07 01:02:00,
2013-01-07 01:12:00,10.0,9.0,-100.00,SSE,150,8.0,12.0,94,0.00,,,0.00,,2013-01-07 01:12:00,
2013-01-07 01:22:00,10.0,9.0,-100.00,SSE,160,7.0,11.0,94,0.00,,,0.00,,2013-01-07 01:22:00,
2013-01-07 01:32:00,10.0,9.0,-100.00,SE,145,7.0,10.0,94,0.00,,,0.00,,2013-01-07 01:32:00,
2013-01-07 01:42:00,10.0,9.0,-100.00,SSE,165,6.0,11.0,94,0.00,,,0.00,,2013-01-07 01:42:00,
2013-01-07 01:52:00,10.0,9.0,-100.00,SSE,150,8.0,12.0,95,0.00,,,0.00,,2013-01-07 01:52:00,
2013-01-07 02:02:00,10.0,9.0,-100.00,SSE,160,9.0,12.0,95,0.00,,,0.00,,2013-01-07 02:02:00,
2013-01-07 02:12:00,10.0,9.0,-100.00,SSE,155,9.0,13.0,95,0.00,,,0.00,,2013-01-07 02:12:00,
2013-01-07 02:22:00,10.0,9.0,-100.00,SSE,155,9.0,13.0,95,0.00,,,0.00,,2013-01-07 02:22:00,
2013-01-07 02:32:00,11.0,10.0,-100.00,SSE,150,9.0,14.0,95,0.00,,,0.00,,2013-01-07 02:32:00,
2013-01-07 02:42:00,11.0,10.0,-100.00,SSE,155,9.0,13.0,95,0.00,,,0.00,,2013-01-07 02:42:00,
2013-01-07 02:52:00,12.0,10.0,-100.00,SSE,155,10.0,14.0,95,0.00,,,0.00,,2013-01-07 02:52:00,
2013-01-07 03:02:00,12.0,10.0,-100.00,SSE,155,12.0,17.0,95,0.00,,,0.00,,2013-01-07 03:02:00,
2013-01-07 03:12:00,13.0,12.0,-100.00,SSE,160,10.0,16.0,95,0.00,,,0.00,,2013-01-07 03:12:00,
2013-01-07 03:22:00,13.0,12.0,-100.00,SSE,165,12.0,17.0,95,0.00,,,0.00,,2013-01-07 03:22:00,
2013-01-07 03:32:00,14.0,12.0,-100.00,SSE,160,16.0,24.0,95,0.00,,,0.00,,2013-01-07 03:32:00,
2013-01-07 03:42:00,14.0,12.0,-100.00,SSE,165,15.0,20.0,95,0.00,,,0.00,,2013-01-07 03:42:00,
2013-01-07 03:52:00,14.0,12.0,-100.00,SSE,165,16.0,22.0,95,0.00,,,0.00,,2013-01-07 03:52:00,
2013-01-07 04:02:00,14.0,12.0,-100.00,SSE,165,13.0,19.0,94,0.00,,,0.00,,2013-01-07 04:02:00,
2013-01-07 04:12:00,14.0,12.0,-100.00,South,170,14.0,18.0,94,0.00,,,0.00,,2013-01-07 04:12:00,
2013-01-07 04:22:00,14.0,12.0,-100.00,South,170,13.0,19.0,94,0.00,,,0.00,,2013-01-07 04:22:00,
2013-01-07 04:32:00,14.0,12.0,-100.00,SSE,165,13.0,19.0,93,0.00,,,0.00,,2013-01-07 04:32:00,
2013-01-07 04:42:00,14.0,12.0,-100.00,SSE,165,12.0,18.0,93,0.00,,,0.00,,2013-01-07 04:42:00,
2013-01-07 04:52:00,15.0,14.0,-100.00,SSE,160,15.0,19.0,93,0.00,,,0.00,,2013-01-07 04:52:00,
2013-01-07 05:02:00,15.0,14.0,-100.00,SSE,160,13.0,19.0,93,0.00,,,0.00,,2013-01-07 05:02:00,
2013-01-07 05:12:00,15.0,14.0,-100.00,South,170,13.0,17.0,93,0.00,,,0.00,,2013-01-07 05:12:00,
2013-01-07 05:22:00,15.0,14.0,-100.00,SSE,165,12.0,19.0,93,0.00,,,0.00,,2013-01-07 05:22:00,
2013-01-07 05:33:00,16.0,14.0,-100.00,SSE,165,13.0,17.0,93,0.00,,,0.00,,2013-01-07 05:33:00,
2013-01-07 05:42:00,15.0,14.0,-100.00,South,170,13.0,17.0,93,0.00,,,0.00,,2013-01-07 05:42:00,
2013-01-07 05:52:00,15.0,14.0,-100.00,SSE,165,13.0,16.0,92,0.00,,,0.00,,2013-01-07 05:52:00,
2013-01-07 06:02:00,16.0,14.0,-100.00,SSE,165,13.0,17.0,92,0.00,,,0.00,,2013-01-07 06:02:00,
2013-01-07 06:12:00,16.0,14.0,-100.00,SSE,165,14.0,18.0,92,0.00,,,0.00,,2013-01-07 06:12:00,
2013-01-07 06:22:00,16.0,14.0,-100.00,SSE,165,9.0,17.0,92,0.00,,,0.00,,2013-01-07 06:22:00,
2013-01-07 06:32:00,16.0,14.0,-100.00,South,170,9.0,12.0,91,0.00,,,0.00,,2013-01-07 06:32:00,
2013-01-07 06:42:00,16.0,14.0,-100.00,SSE,165,12.0,14.0,91,0.00,,,0.00,,2013-01-07 06:42:00,
2013-01-07 06:52:00,17.0,14.0,-100.00,South,170,14.0,17.0,91,0.00,,,0.00,,2013-01-07 06:52:00,
2013-01-07 07:02:00,17.0,14.0,-100.00,South,170,13.0,17.0,91,0.00,,,0.00,,2013-01-07 07:02:00,
2013-01-07 07:12:00,17.0,14.0,-100.00,South,170,13.0,16.0,91,0.00,,,0.00,,2013-01-07 07:12:00,
2013-01-07 07:22:00,17.0,14.0,-100.00,South,175,14.0,16.0,90,0.00,,,0.00,,2013-01-07 07:22:00,
2013-01-07 07:32:00,18.0,16.0,-100.00,South,175,12.0,16.0,89,0.00,,,0.00,,2013-01-07 07:32:00,
2013-01-07 07:42:00,19.0,16.0,-100.00,South,180,12.0,15.0,89,0.00,,,0.00,,2013-01-07 07:42:00,
2013-01-07 07:52:00,20.0,18.0,-100.00,South,185,12.0,16.0,88,0.00,,,0.00,,2013-01-07 07:52:00,
2013-01-07 08:03:00,20.0,16.0,-100.00,South,185,11.0,14.0,87,0.00,,,0.00,,2013-01-07 08:03:00,
2013-01-07 08:12:00,20.0,16.0,-100.00,South,185,13.0,16.0,87,0.00,,,0.00,,2013-01-07 08:12:00,
2013-01-07 08:22:00,20.0,16.0,-100.00,South,185,12.0,14.0,87,0.00,,,0.00,,2013-01-07 08:22:00,
2013-01-07 08:32:00,20.0,16.0,-100.00,South,185,12.0,14.0,87,0.00,,,0.00,,2013-01-07 08:32:00,
2013-01-07 08:42:00,20.0,16.0,-100.00,South,185,13.0,16.0,87,0.00,,,0.00,,2013-01-07 08:42:00,
2013-01-07 08:52:00,20.0,18.0,-100.00,South,190,13.0,15.0,86,0.00,,,0.00,,2013-01-07 08:52:00,
2013-01-07 09:02:00,20.0,16.0,-100.00,SSW,200,11.0,17.0,86,0.00,,,0.00,,2013-01-07 09:02:00,
2013-01-07 09:12:00,20.0,18.0,-100.00,SSW,205,12.0,14.0,86,0.00,,,0.00,,2013-01-07 09:12:00,
2013-01-07 09:22:00,21.0,18.0,-100.00,SSW,210,14.0,17.0,86,0.00,,,0.00,,2013-01-07 09:22:00,
2013-01-07 09:32:00,22.0,18.0,-100.00,SSW,210,14.0,18.0,86,0.00,,,0.00,,2013-01-07 09:32:00,
2013-01-07 09:42:00,21.0,18.0,-100.00,SSW,210,12.0,17.0,86,0.00,,,0.00,,2013-01-07 09:42:00,
2013-01-07 09:52:00,21.0,18.0,-100.00,SSW,210,11.0,16.0,86,0.00,,,0.00,,2013-01-07 09:52:00,
2013-01-07 10:02:00,21.0,18.0,-100.00,SW,220,9.0,12.0,86,0.00,,,0.00,,2013-01-07 10:02:00,
2013-01-07 10:12:00,21.0,18.0,-100.00,SW,215,10.0,12.0,86,0.00,,,0.00,,2013-01-07 10:12:00,
2013-01-07 10:22:00,21.0,18.0,-100.00,SW,220,7.0,11.0,86,0.00,,,0.00,,2013-01-07 10:22:00,
2013-01-07 10:32:00,21.0,18.0,-100.00,SW,220,6.0,9.0,87,0.00,,,0.00,,2013-01-07 10:32:00,
2013-01-07 10:42:00,21.0,18.0,-100.00,SW,215,7.0,11.0,87,0.00,,,0.00,,2013-01-07 10:42:00,
2013-01-07 10:52:00,21.0,18.0,-100.00,SSW,205,9.0,11.0,87,0.00,,,0.00,,2013-01-07 10:52:00,
2013-01-07 11:02:00,21.0,18.0,-100.00,SW,230,6.0,9.0,87,0.00,,,0.00,,2013-01-07 11:02:00,
2013-01-07 11:12:00,22.0,19.0,-100.00,SW,220,9.0,11.0,88,0.00,,,0.00,,2013-01-07 11:12:00,
2013-01-07 11:22:00,23.0,19.0,-100.00,SW,215,12.0,15.0,88,0.00,,,0.00,,2013-01-07 11:22:00,
2013-01-07 11:32:00,23.0,19.0,-100.00,SW,220,11.0,13.0,88,0.00,,,0.00,,2013-01-07 11:32:00,
2013-01-07 11:43:00,23.0,19.0,-100.00,WSW,240,8.0,12.0,88,0.00,,,0.00,,2013-01-07 11:43:00,
2013-01-07 11:52:00,23.0,19.0,-100.00,SW,235,8.0,11.0,88,0.00,,,0.00,,2013-01-07 11:52:00,
2013-01-07 12:02:00,23.0,19.0,-100.00,SW,235,9.0,11.0,88,0.00,,,0.00,,2013-01-07 12:02:00,
2013-01-07 12:12:00,22.0,19.0,-100.00,SW,220,9.0,12.0,88,0.00,,,0.00,,2013-01-07 12:12:00,
2013-01-07 12:22:00,22.0,19.0,-100.00,SW,225,7.0,12.0,88,0.00,,,0.00,,2013-01-07 12:22:00,
2013-01-07 12:32:00,22.0,19.0,-100.00,SW,225,7.0,9.0,88,0.00,,,0.00,,2013-01-07 12:32:00,
2013-01-07 12:43:00,21.0,18.0,-100.00,SW,230,9.0,10.0,88,0.00,,,0.00,,2013-01-07 12:43:00,
2013-01-07 12:52:00,21.0,18.0,-100.00,SW,220,9.0,11.0,89,0.00,,,0.00,,2013-01-07 12:52:00,
2013-01-07 13:02:00,22.0,19.0,-100.00,SW,230,9.0,11.0,89,0.00,,,0.00,,2013-01-07 13:02:00,
2013-01-07 13:12:00,22.0,19.0,-100.00,SW,230,9.0,12.0,89,0.00,,,0.00,,2013-01-07 13:12:00,
2013-01-07 13:23:00,22.0,19.0,-100.00,SW,225,9.0,12.0,90,0.00,,,0.00,,2013-01-07 13:23:00,
2013-01-07 13:33:00,22.0,19.0,-100.00,SW,225,7.0,10.0,90,0.00,,,0.00,,2013-01-07 13:33:00,
2013-01-07 13:42:00,23.0,21.0,-100.00,SW,215,7.0,14.0,90,0.00,,,0.00,,2013-01-07 13:42:00,
2013-01-07 13:52:00,24.0,21.0,-100.00,West,265,7.0,9.0,90,0.00,,,0.00,,2013-01-07 13:52:00,
2013-01-07 14:03:00,24.0,21.0,-100.00,WSW,245,6.0,13.0,90,0.00,,,0.00,,2013-01-07 14:03:00,
2013-01-07 14:12:00,24.0,21.0,-100.00,WSW,245,9.0,14.0,90,0.00,,,0.00,,2013-01-07 14:12:00,
2013-01-07 14:22:00,24.0,21.0,-100.00,West,270,7.0,10.0,90,0.00,,,0.00,,2013-01-07 14:22:00,
2013-01-07 14:33:00,24.0,21.0,-100.00,WSW,255,8.0,11.0,89,0.00,,,0.00,,2013-01-07 14:33:00,
2013-01-07 14:42:00,25.0,21.0,-100.00,WSW,255,9.0,12.0,89,0.00,,,0.00,,2013-01-07 14:42:00,
2013-01-07 14:53:00,25.0,21.0,-100.00,WSW,240,7.0,10.0,88,0.00,,,0.00,,2013-01-07 14:53:00,
2013-01-07 15:03:00,24.0,21.0,-100.00,WSW,245,9.0,12.0,88,0.00,,,0.00,,2013-01-07 15:03:00,
2013-01-07 15:12:00,24.0,21.0,-100.00,WSW,245,11.0,12.0,88,0.00,,,0.00,,2013-01-07 15:12:00,
2013-01-07 15:22:00,24.0,21.0,-100.00,WSW,255,9.0,14.0,87,0.00,,,0.00,,2013-01-07 15:22:00,
2013-01-07 15:33:00,25.0,21.0,-100.00,WSW,255,11.0,13.0,86,0.00,,,0.00,,2013-01-07 15:33:00,
2013-01-07 15:42:00,25.0,21.0,-100.00,WSW,255,12.0,14.0,85,0.00,,,0.00,,2013-01-07 15:42:00,
2013-01-07 15:53:00,25.0,21.0,-100.00,WSW,255,12.0,14.0,83,0.00,,,0.00,,2013-01-07 15:53:00,
2013-01-07 16:02:00,26.0,21.0,-100.00,WSW,250,11.0,16.0,82,0.00,,,0.00,,2013-01-07 16:02:00,
2013-01-07 16:12:00,27.0,21.0,-100.00,WSW,255,10.0,14.0,80,0.00,,,0.00,,2013-01-07 16:12:00,
2013-01-07 16:22:00,28.0,21.0,-100.00,West,260,11.0,14.0,77,0.00,,,0.00,,2013-01-07 16:22:00,
2013-01-07 16:33:00,29.0,21.0,-100.00,WSW,250,10.0,14.0,75,0.00,,,0.00,,2013-01-07 16:33:00,
2013-01-07 16:43:00,29.0,21.0,-100.00,WSW,255,11.0,15.0,74,0.00,,,0.00,,2013-01-07 16:43:00,
2013-01-07 16:53:00,30.0,23.0,-100.00,West,260,12.0,16.0,72,0.00,,,0.00,,2013-01-07 16:53:00,
2013-01-07 17:02:00,31.0,23.0,-100.00,West,265,11.0,15.0,71,0.00,,,0.00,,2013-01-07 17:02:00,
2013-01-07 17:12:00,31.0,23.0,-100.00,West,265,12.0,16.0,70,0.00,,,0.00,,2013-01-07 17:12:00,
2013-01-07 17:23:00,32.0,23.0,-100.00,West,260,12.0,14.0,68,0.00,,,0.00,,2013-01-07 17:23:00,
2013-01-07 17:33:00,32.0,23.0,-100.00,West,265,11.0,16.0,66,0.00,,,0.00,,2013-01-07 17:33:00,
2013-01-07 17:42:00,33.0,23.0,-100.00,West,270,11.0,15.0,66,0.00,,,0.00,,2013-01-07 17:42:00,
2013-01-07 17:52:00,32.0,23.0,-100.00,West,270,11.0,14.0,66,0.00,,,0.00,,2013-01-07 17:52:00,
2013-01-07 18:03:00,32.0,23.0,-100.00,West,275,10.0,15.0,66,0.00,,,0.00,,2013-01-07 18:03:00,
2013-01-07 18:12:00,33.0,23.0,-100.00,West,275,11.0,14.0,66,0.00,,,0.00,,2013-01-07 18:12:00,
2013-01-07 18:23:00,34.0,23.0,-100.00,West,265,11.0,12.0,65,0.00,,,0.00,,2013-01-07 18:23:00,
2013-01-07 18:32:00,34.0,23.0,-100.00,West,265,10.0,14.0,64,0.00,,,0.00,,2013-01-07 18:32:00,
2013-01-07 18:42:00,35.0,23.0,-100.00,West,275,11.0,15.0,64,0.00,,,0.00,,2013-01-07 18:42:00,
2013-01-07 18:52:00,35.0,23.0,-100.00,West,270,12.0,15.0,63,0.00,,,0.00,,2013-01-07 18:52:00,
2013-01-07 19:03:00,36.0,25.0,-100.00,West,265,12.0,14.0,62,0.00,,,0.00,,2013-01-07 19:03:00,
2013-01-07 19:12:00,36.0,25.0,-100.00,West,265,10.0,15.0,62,0.00,,,0.00,,2013-01-07 19:12:00,
2013-01-07 19:22:00,36.0,25.0,-100.00,West,275,11.0,16.0,61,0.00,,,0.00,,2013-01-07 19:22:00,
2013-01-07 19:33:00,36.0,25.0,-100.00,West,275,11.0,16.0,63,0.00,,,0.00,,2013-01-07 19:33:00,
2013-01-07 19:42:00,37.0,25.0,-100.00,West,265,9.0,14.0,63,0.00,,,0.00,,2013-01-07 19:42:00,
2013-01-07 19:52:00,38.0,25.0,-100.00,West,260,11.0,14.0,61,0.00,,,0.00,,2013-01-07 19:52:00,
2013-01-07 20:03:00,37.0,25.0,-100.00,WSW,255,11.0,16.0,61,0.00,,,0.00,,2013-01-07 20:03:00,
2013-01-07 20:12:00,37.0,25.0,-100.00,West,265,11.0,15.0,60,0.00,,,0.00,,2013-01-07 20:12:00,
2013-01-07 20:23:00,37.0,25.0,-100.00,West,270,11.0,15.0,60,0.00,,,0.00,,2013-01-07 20:23:00,
2013-01-07 20:33:00,37.0,25.0,-100.00,WSW,250,10.0,14.0,59,0.00,,,0.00,,2013-01-07 20:33:00,
2013-01-07 20:42:00,36.0,25.0,-100.00,WSW,255,10.0,12.0,62,0.00,,,0.00,,2013-01-07 20:42:00,
2013-01-07 20:52:00,36.0,25.0,-100.00,WSW,250,9.0,12.0,63,0.00,,,0.00,,2013-01-07 20:52:00,
2013-01-07 21:03:00,36.0,25.0,-100.00,WSW,255,9.0,11.0,64,0.00,,,0.00,,2013-01-07 21:03:00,
2013-01-07 21:12:00,36.0,25.0,-100.00,WSW,250,9.0,12.0,64,0.00,,,0.00,,2013-01-07 21:12:00,
2013-01-07 21:22:00,35.0,25.0,-100.00,WSW,250,8.0,12.0,65,0.00,,,0.00,,2013-01-07 21:22:00,
2013-01-07 21:32:00,34.0,25.0,-100.00,WSW,245,9.0,11.0,66,0.00,,,0.00,,2013-01-07 21:32:00,
2013-01-07 21:42:00,34.0,25.0,-100.00,WSW,240,10.0,11.0,68,0.00,,,0.00,,2013-01-07 21:42:00,
2013-01-07 21:52:00,34.0,25.0,-100.00,WSW,255,9.0,11.0,68,0.00,,,0.00,,2013-01-07 21:52:00,
2013-01-07 22:02:00,33.0,25.0,-100.00,WSW,255,8.0,12.0,68,0.00,,,0.00,,2013-01-07 22:02:00,
2013-01-07 22:12:00,33.0,23.0,-100.00,West,260,7.0,9.0,69,0.00,,,0.00,,2013-01-07 22:12:00,
2013-01-07 22:22:00,32.0,23.0,-100.00,WSW,245,7.0,9.0,70,0.00,,,0.00,,2013-01-07 22:22:00,
2013-01-07 22:33:00,31.0,23.0,-100.00,West,260,6.0,9.0,71,0.00,,,0.00,,2013-01-07 22:33:00,
2013-01-07 22:42:00,31.0,23.0,-100.00,WSW,255,7.0,9.0,72,0.00,,,0.00,,2013-01-07 22:42:00,
2013-01-07 22:52:00,30.0,23.0,-100.00,WSW,255,7.0,9.0,73,0.00,,,0.00,,2013-01-07 22:52:00,
2013-01-07 23:02:00,29.0,21.0,-100.00,WSW,250,7.0,9.0,73,0.00,,,0.00,,2013-01-07 23:02:00,
2013-01-07 23:12:00,29.0,21.0,-100.00,WSW,255,7.0,9.0,74,0.00,,,0.00,,2013-01-07 23:12:00,
2013-01-07 23:22:00,28.0,21.0,-100.00,West,260,7.0,9.0,76,0.00,,,0.00,,2013-01-07 23:22:00,
2013-01-07 23:33:00,28.0,21.0,-100.00,West,265,6.0,8.0,76,0.00,,,0.00,,2013-01-07 23:33:00,
2013-01-07 23:42:00,28.0,21.0,-100.00,WNW,295,4.0,6.0,77,0.00,,,0.00,,2013-01-07 23:42:00,
2013-01-07 23:52:00,27.0,21.0,-100.00,NNW,335,3.0,6.0,78,0.00,,,0.00,,2013-01-07 23:52:00,